Location: Kelowna
(49.8880°N, 119.4960°W)
Time: 14:22:23
(UTC-08:00)

ISS - Visible Passes

Search period start: 29 November 2023 00:00
Search period end: 09 December 2023 00:00
Orbit: 416 x 417 km, 51.6° (Epoch: 29 November)

Date Brightness Start Highest point End Pass type
(mag) Time Alt. Az. Time Alt. Az. Time Alt. Az.
29 Nov -3.7 16:59:24 10° WNW 17:02:45 65° N 17:05:35 14° E visible
29 Nov -2.2 18:36:13 10° WNW 18:38:30 37° W 18:38:30 37° W visible
30 Nov -3.7 17:47:50 10° WNW 17:51:12 74° SSW 17:52:17 39° SE visible
30 Nov -0.2 19:25:07 10° W 19:25:13 10° W 19:25:13 10° W visible
01 Dec -3.8 16:59:26 10° WNW 17:02:48 87° NNE 17:06:09 10° ESE visible
01 Dec -1.8 18:36:25 10° W 18:39:05 27° SW 18:39:05 27° SW visible
02 Dec -2.5 17:47:48 10° W 17:50:59 39° SSW 17:53:04 18° SSE visible
03 Dec -3.1 16:59:16 10° WNW 17:02:33 56° SSW 17:05:51 10° SE visible
03 Dec -0.8 18:37:08 10° WSW 18:38:44 13° SW 18:40:13 10° SSW visible
04 Dec -1.1 17:47:56 10° W 17:50:25 19° SW 17:52:54 10° S visible
05 Dec -1.6 16:59:04 10° W 17:02:01 28° SW 17:04:56 10° SSE visible
07 Dec -0.5 16:59:18 10° WSW 17:01:06 14° SW 17:02:55 10° S visible
